Hourly Weather Roundup
Issued by NWS Central Illinois

Home | Current Version | Previous Version | Text Only | Print | Product List | Glossary On
Versions: 1 2 3 4 5 6 7 8 9 10 11 12 13 14 15 16 17 18 19 20 21 22 23 24 25 26 27 28 29 30 31 32 33 34 35 36 37 38 39 40 41 42 43 44 45 46 47 48 49 50
000
NZUS43 KILX 260810
HWRILX

AREA WEATHER ROUNDUP
NATIONAL WEATHER SERVICE, LINCOLN IL
200 AM CST SUN FEB 26 2017


CITY           SKY/WX    TMP DP  RH WIND       PRES   REMARKS
BLOOMINGTON    PTCLDY    19  15  84 S7        30.08F WCI  10
CHAMPAIGN      CLEAR     20  12  71 W3        30.10F
DECATUR        CLEAR     22  13  68 SW3       30.11S
EFFINGHAM      CLEAR     23  20  88 CALM      30.15F
FLORA          CLEAR     23  18  81 CALM      30.16S
GALESBURG      CLOUDY    24  19  81 SE5       30.03F WCI  18
JACKSONVILLE   PTCLDY    25  13  59 S7        30.08F WCI  18
LACON          CLEAR     24  18  75 S5        30.05F WCI  19
LAWRENCEVILLE  PTCLDY    26  17  68 CALM      30.16S
LITCHFIELD     CLEAR     21  15  78 S3        30.10F
$$


CITY           SKY/WX    TMP DP  RH WIND       PRES   REMARKS
LINCOLN        CLEAR     21  16  81 S3        30.10F
MACOMB         CLOUDY    26  20  80 S8        30.06F WCI  17
MATTOON        CLEAR     25  15  66 SW5       30.11S WCI  19
MT CARMEL AP   CLEAR     26  18  73 CALM      30.16S
OLNEY-NOBLE AP CLEAR     23  21  93 CALM      30.16S
PARIS          CLEAR     20  15  79 SW3       30.13S
PEORIA         CLEAR     24  18  77 S6        30.07F WCI  17
PONTIAC        PTCLDY    24  21  85 SW3       30.09F
RANTOUL        PTCLDY    23  19  83 W3        30.10F
SPRINGFIELD    CLEAR     22  13  68 S5        30.10F WCI  16
TAYLORVILLE    CLEAR     21  14  73 SE5       30.11F WCI  15
$$

...REGIONAL REPORTS...


CITY           SKY/WX    TMP DP  RH WIND       PRES   REMARKS
CHICAGO O`HARE PTCLDY    24  16  71 SW5       30.04S WCI  18
KANKAKEE       CLOUDY    23  18  83 CALM      30.09S
MOLINE         MOCLDY    26  17  68 CALM      30.02F
MOUNT STERLING MOCLDY    25  16  70 S7        30.05F WCI  17
MOUNT VERNON   CLEAR     19  17  92 CALM      30.15F
PITTSFIELD     MOCLDY    26  17  69 S6        30.08F WCI  19
QUINCY         CLOUDY    29  15  56 S10       30.04F WCI  20
ROCKFORD       CLOUDY    25  19  78 S6        30.03F WCI  18
$$


CITY           SKY/WX    TMP DP  RH WIND       PRES   REMARKS
BURLINGTON     CLOUDY    28  17  63 S9        30.01F WCI  19
CEDAR RAPIDS   CLOUDY    27  19  72 S10       29.94F WCI  17
DES MOINES     CLOUDY    32  17  54 SW12      29.89F WCI  23
KIRKSVILLE     PTCLDY    29  13  51 S9        30.00F WCI  20
OTTUMWA        CLOUDY    30  17  58 S13       29.94F WCI  20
ST LOUIS       PTCLDY    29  15  56 CALM      30.11F
$$


CITY           SKY/WX    TMP DP  RH WIND       PRES   REMARKS
TERRE HAUTE    CLEAR     22  14  71 CALM      30.13S
EVANSVILLE     CLEAR     29  15  56 NW3       30.16F
INDIANAPOLIS   CLEAR     22  15  75 W5        30.10S WCI  16
LAFAYETTE      CLEAR     21  17  84 CALM      30.11S
MADISON        CLOUDY    22  15  75 SW5       29.96F WCI  16
MILWAUKEE      PTCLDY    22  13  68 SW9       29.99S WCI  12
$$






USA.gov is the U.S. government's official web portal to all federal, state and local government web resources and services.